STARLINK-3263 (50196 NORAD) Tracking and Keplerian Element Data

This shows tracking and keplerian element data for the satellite.

Feedback or suggestion? Click here.




ElementValue
Catalog50196
NameSTARLINK-3263
Epoch Orbit2660
Epoch Day140.91667824
Epoch Year2022
RAAN353.5576
Inclination53.2182
Eccentricity0.0002202
Argument of Perigee37.4611
Mean Anonmoly55.6031
Mean Motion15.08842159
Decay Rate-0.00020605
L11 50196U 21125AS 22140.91667824 -.00020605 00000+0 -12801-2 0 9992
L22 50196 53.2182 353.5576 0002202 37.4611 55.6031 15.08842159 26603

Live tracking and technical data element details for STARLINK-3263 (NORAD 50196). STARLINK-3263 can be tracked NOW for your location showing map with azimuth and elevation plus other details from your city location.

Track the satellite on the map from your city or location and see movement details for azimuth, elevation, latitude, longitude, range, height, and movement on the map or in text.







IsCatalogInMostPopularTable: catalog: 50196, numindb: 22
Update: records affected: 1



GetName: 50196 STARLINK-3263

Hit Count: updated at: Mon, 23 May 2022 21:31:16 GMT